Location: Newark
(45.2500°N, 7.5833°E)
Time: 18:39:18
(UTC+00:00)

A-11 Canister half - Pass Details

Date: 31 January 2020
Orbit: 1525 x 1684 km, 47.3° (Epoch: 17 February)

Event Time Altitude Azimuth Distance (km) Brightness Sun altitude
Rises 20:17:31 0° 289° (WNW) 4,707 12.5 -39.1°
Reaches altitude 10° 20:20:32 10° 288° (WNW) 3,738 11.7 -39.6°
Enters shadow 20:28:35 67° 264° (W) 1,692 9.1 -41.0°
Maximum altitude 20:30:00 78° 204° (SSW) 1,619 - -41.2°
Drops below altitude 10° 20:39:47 10° 121° (ESE) 3,854 - -42.8°
Sets 20:42:57 0° 120° (ESE) 4,859 - -43.4°
